Temp
15 14 15 15 16 17 17 18 18 19 19 21 22 23 24 24 27 26 25 31 30 26 26 24 23 24 24 24 25 22 24 25 26 28 27 28 28 27 28 27 28 28 25 24 22
15 15 15 15 16 16 17 17 18 18 19 20 22 23 24 25 25 23 32 31 30 28 25 24 24 24 23 24 24 24 25 27 27 26 27 27 28 27 28 27 27 25 25 23 22
14 15 15 16 16 16 17 17 18 18 19 20 21 22 23 24 23 29 31 31 30 28 27 25 25 25 25 25 26 26 25 28 27 27 26 26 25 28 27 26 27 24 24 23 23
15 16 16 16 17 17 17 18 18 19 19 19 20 21 23 23 28 30 31 30 30 28 27 27 27 27 28 27 28 27 29 27 26 26 26 25 23 25 24 24 27 26 24 24 23
16 16 16 16 17 17 17 18 19 19 19 19 20 21 23 23 25 29 29 29 28 27 27 28 29 28 28 29 30 29 29 27 27 27 24 25 22 23 23 23 28 26 25 24 23
15 16 16 16 17 17 18 18 19 19 19 19 19 20 20 23 29 29 29 29 28 26 27 27 30 30 29 31 28 27 27 26 26 26 25 25 23 24 22 24 27 27 25 25 25
15 16 16 17 17 17 18 19 20 20 19 20 19 18 17 22 28 27 26 27 27 27 26 28 30 30 29 30 29 28 27 26 26 25 26 26 23 23 23 23 27 27 26 25 25
15 16 16 17 17 18 18 20 20 21 20 20 18 16 17 26 26 28 29 29 28 28 27 29 30 30 29 31 31 29 26 25 26 26 26 25 24 24 23 24 27 27 27 27 25
15 16 16 17 17 18 20 21 22 21 20 19 17 17 19 25 25 29 28 28 30 30 29 28 30 29 30 27 27 27 26 25 26 27 26 25 23 24 23 24 25 28 27 27 25
15 16 17 17 18 18 21 21 21 20 19 18 18 18 21 26 27 28 29 29 29 30 29 29 27 27 25 25 26 28 26 26 26 25 25 24 24 22 23 24 26 25 28 27 26
15 16 16 17 18 19 22 21 17 18 20 20 20 19 22 25 27 27 29 28 29 29 27 28 26 25 27 27 28 29 29 28 28 25 25 24 23 23 23 23 25 24 27 27 26
14 15 16 17 18 20 20 17 19 20 17 20 19 21 23 24 24 25 28 27 26 26 26 26 25 27 28 29 29 29 29 28 26 25 26 23 24 24 24 24 24 25 26 27 26
14 15 16 18 19 19 17 20 20 20 17 19 20 20 21 22 22 23 26 26 27 25 25 25 26 28 29 29 29 28 28 28 28 25 26 25 25 25 25 25 25 26 27 28 27
14 14 15 17 18 17 19 21 21 21 15 19 21 22 22 23 24 25 27 28 27 25 24 25 27 28 28 29 28 27 29 30 26 25 25 26 25 26 25 25 25 26 24 26 27
15 15 15 15 15 15 20 21 22 21 18 25 24 25 23 24 26 26 28 27 25 26 25 25 26 26 27 28 28 28 31 30 27 25 25 25 24 25 26 26 25 25 25 25 27
15 15 15 14 14 19 20 21 21 17 18 23 25 24 24 24 26 27 27 27 26 26 25 25 28 27 27 29 29 30 31 29 25 24 24 25 25 26 24 28 30 27 27 26 27
16 16 14 13 16 19 20 17 16 16 21 22 22 22 22 24 25 26 26 25 23 23 24 26 26 28 29 28 29 28 27 26 24 24 25 24 25 29 29 28 30 30 27 27 26
17 18 18 18 19 19 19 16 18 20 20 22 22 21 21 22 25 24 23 23 23 22 19 22 24 26 27 27 26 25 25 23 25 24 25 25 25 28 29 30 30 31 29 28 26
18 18 19 20 21 19 14 14 16 19 21 21 20 20 20 21 23 22 23 22 22 21 22 20 23 25 27 28 26 26 24 25 25 24 24 24 26 29 29 27 29 29 29 29 27
16 16 19 20 20 19 13 16 17 19 21 21 21 22 20 20 20 20 23 24 24 22 22 22 24 25 27 28 28 26 25 25 22 25 25 25 26 28 29 28 28 29 28 29 29
16 16 19 20 21 13 15 15 19 20 19 19 18 19 19 19 20 21 23 23 24 24 21 20 21 24 26 25 24 24 25 24 22 22 25 24 25 25 28 27 28 27 25 27 28
12 16 19 20 16 10 15 18 18 18 18 17 18 18 17 18 19 19 22 23 22 23 23 22 18 21 23 25 25 24 24 23 23 24 21 22 25 28 29 25 25 24 24 24 25
10 11 20 20 15 13 15 17 18 17 16 16 15 16 16 16 19 19 19 21 19 21 24 22 18 20 21 22 24 26 24 24 21 20 23 24 25 27 25 25 25 24 23 22 24
11 14 13 12 11 16 16 14 15 17 16 16 15 15 14 14 14 15 15 18 17 19 23 20 16 19 23 22 23 26 26 25 23 20 23 23 27 26 24 24 24 23 22 22 22
9 12 12 13 13 13 13 15 14 14 14 13 13 14 13 13 13 13 14 14 17 17 17 19 21 21 22 24 25 26 23 25 25 25 25 26 25 25 25 24 23 23 22 21 20
10 10 10 10 12 14 11 13 14 14 14 13 13 14 14 13 13 13 12 13 14 14 15 14 20 22 23 24 24 22 20 23 21 21 25 23 23 22 22 23 22 21 21 19 19
13 12 10 11 11 12 13 14 13 13 14 14 13 13 12 13 14 12 11 12 13 13 12 13 16 18 21 22 24 20 19 20 20 20 20 24 22 21 20 21 20 19 19 18 18
Height
801 799 795 792 789 786 784 782 779 776 773 770 766 763 760 757 754 752 749 746 747 750 755 759 763 767 769 770 769 772 787 795 786 780 779 767 772 767 763 769 771 770 778 787 793
801 798 795 792 788 785 783 780 778 775 772 769 767 764 761 756 752 748 744 743 747 749 754 757 761 767 773 771 770 776 788 776 769 773 777 772 770 775 776 778 780 780 785 790 797
801 798 794 791 788 785 782 779 776 774 771 769 767 764 761 758 755 743 740 740 745 749 752 755 760 764 773 768 767 769 782 761 768 769 769 775 778 767 781 790 781 784 787 792 797
800 797 793 790 787 783 780 776 774 772 770 768 766 763 760 759 772 741 741 741 745 748 753 754 760 763 765 768 758 771 755 763 768 768 774 780 787 787 788 789 782 783 785 791 796
799 795 792 788 784 781 777 774 771 770 769 767 765 763 761 761 751 742 742 743 745 748 750 752 755 760 767 757 753 763 759 761 763 767 776 780 792 794 791 782 781 787 789 794 798
798 794 790 786 782 778 774 770 768 767 766 765 764 763 763 769 741 740 741 743 744 746 748 751 749 748 756 754 761 760 763 767 768 770 773 777 789 786 785 786 785 789 792 794 796
797 793 789 784 780 775 770 766 764 763 763 762 762 763 764 750 739 739 740 742 743 742 745 746 746 749 751 758 756 756 774 774 775 777 779 778 797 797 786 785 785 789 790 793 793
795 790 786 781 776 772 767 762 759 758 758 759 760 763 760 737 737 735 737 738 740 740 742 743 745 745 751 748 757 765 778 797 776 776 776 783 802 787 785 784 782 786 788 791 792
794 789 784 779 774 768 761 757 753 752 755 757 760 761 755 736 735 729 733 734 736 737 738 742 744 748 749 771 783 779 798 796 787 773 779 785 799 784 783 783 783 781 785 789 792
793 788 782 777 772 765 758 753 752 753 756 757 758 763 742 735 731 729 728 730 734 735 739 744 751 763 769 779 809 791 796 790 789 782 782 790 790 786 784 783 779 781 781 787 789
791 786 781 776 771 765 759 755 759 760 756 755 752 751 739 733 729 725 724 727 734 739 758 748 768 780 770 768 766 771 778 782 773 776 782 788 789 783 781 785 783 782 778 781 785
788 784 779 775 770 766 763 764 769 769 766 744 740 739 733 736 741 726 724 734 741 757 752 762 776 759 754 758 763 772 777 780 776 777 779 791 789 780 777 779 778 778 775 776 781
786 782 777 772 768 767 765 765 764 760 768 743 734 733 730 733 739 731 724 729 741 755 757 769 761 747 755 761 768 776 780 778 781 781 778 784 789 784 773 771 771 772 769 770 774
785 781 776 771 771 768 765 764 761 758 788 757 737 727 725 725 733 719 719 727 738 753 758 759 747 751 756 763 764 786 762 762 778 790 805 778 811 781 773 770 768 766 767 766 768
783 779 775 772 771 769 766 762 759 759 801 737 731 721 723 729 722 720 715 724 744 745 754 763 754 758 762 760 756 767 753 762 772 786 791 792 806 783 765 772 766 761 759 761 761
780 775 772 771 769 766 764 760 760 792 795 752 733 735 734 730 722 716 720 719 727 742 747 753 737 743 749 745 748 748 756 764 780 795 812 790 797 783 777 750 742 746 747 752 756
775 772 769 769 767 765 763 762 796 804 761 760 752 741 737 734 732 726 732 742 754 769 769 754 752 741 735 753 748 759 779 808 817 818 813 787 798 760 739 738 733 734 740 743 748
771 767 766 765 766 765 764 781 797 779 773 753 750 748 753 741 735 732 740 751 744 753 782 781 781 750 738 749 764 769 779 814 822 822 805 785 796 760 726 713 717 718 724 738 743
769 767 766 766 766 766 774 802 794 778 764 762 757 761 762 749 741 741 744 753 745 748 768 782 774 741 733 735 747 766 783 768 794 796 807 795 766 737 724 722 716 719 725 730 738
770 769 768 767 768 768 788 793 786 772 762 758 767 759 772 764 758 758 748 739 740 738 733 753 766 743 732 730 736 750 754 786 797 811 815 796 780 768 737 728 720 720 723 724 729
772 775 771 770 770 780 796 794 777 769 763 767 772 771 773 774 764 759 750 741 734 731 736 751 760 756 741 748 758 760 767 771 780 792 802 814 790 739 730 722 721 725 726 725 726
776 786 774 773 787 801 793 783 777 776 770 772 770 773 779 775 769 767 757 746 735 730 741 743 763 773 757 737 734 744 757 763 789 791 795 795 781 722 716 725 718 727 728 727 727
788 789 773 771 799 800 791 786 783 781 783 781 785 783 779 781 775 768 762 740 744 739 735 740 768 779 771 757 742 743 748 751 766 775 782 792 780 724 721 729 720 719 723 726 726
790 796 788 785 796 791 792 799 796 785 788 787 790 786 789 789 786 783 777 755 750 745 729 737 768 767 762 763 750 745 740 742 756 783 775 774 755 741 735 736 735 730 729 730 728
796 803 801 805 801 800 799 800 803 801 794 795 794 796 797 797 792 789 783 774 755 753 749 748 756 751 745 736 735 737 748 741 748 747 757 750 753 743 731 733 739 737 734 737 737
804 807 804 806 803 801 806 807 804 800 799 801 801 796 795 797 794 793 792 788 780 765 766 763 758 748 746 736 736 750 753 744 749 752 742 744 748 740 738 734 737 743 745 745 746
803 803 806 809 808 807 808 804 804 801 798 796 797 797 796 791 786 787 788 786 781 783 783 778 769 765 760 744 741 765 762 759 758 756 755 746 738 739 751 750 750 749 754 755 758
Wind_Speed
22 22 22 22 21 20 19 18 18 18 18 19 19 19 21 23 22 11 5 3 6 21 20 22 10 7 4 1 3 6 1 1 4 1 3 9 4 3 6 12 4 2 9 17 26
21 22 23 23 23 22 20 19 18 17 18 19 17 17 19 22 19 9 9 7 8 22 27 19 10 12 3 4 3 3 2 5 7 2 2 4 7 4 3 11 10 13 17 29 27
22 22 23 23 23 23 23 21 19 17 17 18 17 16 16 15 5 5 6 9 14 22 16 21 15 8 6 4 5 5 5 4 5 6 3 7 12 6 11 1 15 19 22 23 24
23 23 23 24 24 25 25 23 20 17 16 16 15 15 13 5 4 2 7 7 12 21 14 10 11 5 4 5 7 3 4 5 6 7 4 3 3 6 7 5 8 16 23 21 19
24 24 25 26 26 28 28 24 20 17 15 15 14 12 5 2 9 3 4 1 14 18 7 6 6 5 4 5 6 3 6 5 11 12 11 9 7 6 11 14 9 18 20 19 16
25 26 27 28 28 30 30 26 20 17 14 12 11 6 1 4 6 7 9 7 12 17 5 8 6 7 4 3 4 5 12 10 9 11 8 13 7 12 5 7 11 18 18 17 17
27 27 28 28 30 32 31 28 21 17 12 10 6 2 0 14 2 4 3 3 13 12 4 9 6 3 3 4 11 14 10 6 3 10 5 10 5 10 10 5 12 14 14 15 14
28 29 29 30 31 32 33 26 22 16 9 5 3 5 7 11 12 23 22 17 17 16 17 17 8 4 4 2 5 4 5 3 5 4 4 4 4 9 12 11 15 16 13 13 10
29 30 30 31 34 35 31 26 16 6 2 5 5 4 9 6 6 20 20 10 8 14 17 10 6 4 2 6 3 5 4 3 3 5 4 2 2 7 10 9 9 14 15 12 11
29 30 31 31 32 35 25 12 10 7 7 4 1 2 6 1 4 10 12 22 5 1 1 5 2 1 3 4 3 4 3 4 5 4 3 4 3 4 10 11 13 9 13 12 12
29 29 29 30 30 26 22 3 5 4 2 6 6 6 6 9 12 4 8 10 2 3 5 2 3 5 8 5 5 3 1 6 2 5 3 4 6 10 10 5 6 7 11 14 12
28 28 28 28 30 10 14 4 1 7 9 10 11 11 19 3 5 4 4 7 7 7 5 2 4 9 4 4 4 3 3 4 1 5 3 6 7 6 10 10 8 9 10 14 9
27 27 27 26 16 7 11 5 21 11 2 8 6 6 6 11 9 7 5 4 5 7 6 7 6 8 5 3 4 3 4 3 2 3 2 4 4 6 8 7 13 13 12 13 15
27 25 24 25 2 16 7 18 21 3 5 8 4 6 5 9 5 8 7 5 2 12 8 5 5 5 5 5 7 5 7 8 6 5 4 2 3 5 7 14 14 16 9 13 14
26 24 21 16 12 5 8 20 15 4 3 3 3 1 1 8 4 6 6 5 8 6 7 8 7 8 9 6 7 10 7 6 6 5 3 1 3 6 3 8 10 13 13 12 14
26 22 20 5 8 7 14 17 2 5 5 7 4 7 3 4 3 2 5 4 4 4 3 8 2 6 9 7 7 3 2 2 4 3 2 6 5 6 6 13 16 14 17 17 14
24 18 14 8 3 8 13 4 5 3 6 8 9 10 6 2 4 3 5 4 6 5 1 0 4 4 2 4 2 5 5 2 2 0 6 6 3 13 8 6 13 17 14 16 16
24 12 7 8 6 7 4 5 3 4 5 8 6 8 6 8 3 3 6 4 1 5 3 7 8 7 3 8 7 6 9 6 6 4 4 6 6 8 8 15 13 16 15 12 16
18 7 3 3 3 1 5 4 5 3 5 7 10 6 7 7 3 5 2 4 8 9 8 5 5 4 7 4 11 4 5 9 5 1 2 5 7 9 5 9 11 15 14 17 17
10 8 4 1 4 6 5 3 4 3 8 2 4 3 7 8 8 7 3 3 4 10 7 9 1 4 4 5 3 7 6 4 2 6 5 5 5 5 5 2 3 8 15 13 13
4 4 11 5 3 5 2 5 2 8 9 7 6 4 4 5 4 5 3 4 4 6 7 5 5 5 4 4 8 3 3 3 5 5 6 2 7 7 8 8 7 8 8 6 8
3 3 8 5 4 1 2 4 7 7 10 7 4 5 3 5 4 5 4 4 10 3 3 2 6 5 9 2 4 8 9 8 5 5 2 4 7 5 3 4 11 8 9 6 8
2 2 7 1 2 3 4 5 6 10 10 8 7 5 4 5 3 3 7 7 15 9 3 2 1 1 9 6 3 5 5 5 4 3 8 5 6 8 6 6 6 15 8 7 5
3 3 4 5 1 0 3 5 6 6 4 5 3 5 3 4 3 6 7 6 16 8 10 5 3 6 10 7 5 3 4 5 6 4 5 7 5 3 8 7 4 9 8 7 5
4 0 2 3 5 4 4 3 5 8 6 9 6 4 4 4 6 3 4 8 8 12 11 4 2 2 3 4 4 4 4 1 5 4 7 8 10 4 12 14 9 9 13 13 11
2 3 4 2 1 4 5 4 3 4 3 5 4 5 1 1 5 5 6 2 5 9 9 7 3 2 1 3 6 5 9 5 8 5 3 7 2 0 7 11 16 12 12 14 12
5 2 3 5 3 3 2 1 2 2 3 3 3 2 6 6 3 8 9 9 10 5 4 4 2 1 4 3 4 5 11 5 9 11 6 5 6 13 10 13 11 14 13 14 13
Wind_Direction
13 11 8 3 358 353 349 346 344 342 340 339 338 335 333 329 327 315 262 219 144 158 148 140 146 142 149 210 184 135 119 47 280 325 44 41 89 261 67 131 181 205 126 149 147
7 5 4 1 358 353 347 344 341 338 337 339 335 333 328 330 327 270 273 234 159 162 149 157 166 165 180 216 183 169 204 193 172 86 44 28 49 356 110 150 101 92 113 137 142
3 1 359 357 356 352 348 341 335 334 334 335 333 328 326 330 322 257 317 238 190 171 162 173 163 169 214 159 189 188 203 207 125 108 70 12 30 10 122 195 149 143 143 149 149
0 358 355 353 351 348 343 338 333 329 329 330 331 329 329 337 217 50 47 118 180 173 141 191 155 214 231 206 187 205 211 122 104 127 149 76 50 36 352 336 184 142 146 150 154
358 355 354 350 347 344 340 334 329 325 322 325 328 333 338 339 253 305 295 295 179 183 193 182 188 191 282 282 149 246 121 92 133 111 100 104 91 29 7 331 166 142 149 158 162
355 354 351 348 344 342 338 334 327 322 317 315 323 335 37 229 275 272 259 220 187 194 204 194 212 197 280 313 79 97 95 106 125 141 166 158 167 147 284 303 158 158 158 163 168
353 350 348 345 343 341 337 330 323 318 310 301 305 139 187 234 196 111 84 212 214 204 210 225 218 196 7 56 147 113 90 57 69 160 174 116 133 208 164 248 169 179 164 169 174
349 346 344 343 341 339 333 329 318 306 289 272 171 149 239 256 264 252 257 257 237 250 249 263 247 227 171 166 198 87 85 127 208 177 127 236 148 167 187 185 178 179 183 184 172
344 342 341 340 340 338 333 332 325 303 190 148 146 174 261 294 262 245 234 220 223 244 243 259 296 220 70 108 22 6 185 193 291 194 121 177 220 202 203 187 171 185 188 194 180
339 338 337 338 339 338 340 349 40 95 106 107 242 358 273 273 314 286 267 230 216 256 345 171 126 139 39 83 190 157 119 217 222 151 109 158 220 146 201 210 179 176 193 201 188
336 335 334 336 339 341 358 16 15 1 153 232 210 250 284 315 316 314 205 141 175 138 171 193 125 210 220 170 186 118 123 283 108 132 135 184 176 195 195 211 232 202 194 197 194
337 335 333 335 337 346 358 54 67 289 300 250 235 247 251 1 308 305 197 142 147 185 145 46 195 227 194 173 207 130 254 277 294 147 142 180 218 239 193 217 218 223 207 197 180
340 339 336 336 340 354 334 8 344 358 278 295 220 218 223 156 207 265 141 146 138 164 179 174 223 222 162 209 232 145 191 247 241 134 35 186 270 194 226 202 214 230 217 199 177
343 342 337 339 19 338 309 337 344 47 38 282 275 272 175 151 243 216 199 147 184 189 144 209 225 218 201 192 179 266 176 237 138 121 218 203 265 257 198 198 192 202 187 193 182
340 335 333 335 304 303 327 336 337 82 343 334 308 147 309 160 177 226 156 59 158 162 131 223 187 184 213 191 158 238 158 205 174 166 121 89 65 267 156 205 200 201 200 192 181
334 330 323 319 290 287 327 332 21 44 262 332 344 332 109 297 251 62 126 75 143 142 51 211 240 184 190 203 187 52 43 38 74 100 286 195 138 261 190 212 209 196 199 186 183
338 331 306 283 248 329 338 30 40 123 323 349 326 330 277 188 276 138 116 136 153 131 166 233 243 259 167 188 82 102 90 316 354 301 227 183 152 249 252 217 216 195 200 185 178
340 332 302 279 286 323 21 53 77 259 267 299 315 324 46 351 5 287 124 193 121 98 127 169 246 174 181 176 170 168 156 164 187 213 241 172 231 248 240 272 198 213 174 182 181
349 359 336 18 71 62 71 66 204 248 306 319 329 47 344 345 18 30 116 208 206 170 174 134 250 270 210 146 145 196 154 191 134 16 76 235 295 307 290 314 185 178 184 188 189
345 340 334 123 113 45 67 217 224 257 301 311 21 39 19 336 18 20 34 265 295 199 165 208 155 241 193 119 225 157 182 86 8 176 212 275 266 238 256 146 187 176 185 195 193
12 44 354 163 119 44 118 241 312 352 6 36 17 48 357 8 303 312 321 299 332 322 155 128 119 270 83 195 177 89 155 85 127 145 184 183 273 218 235 185 168 107 86 86 172
47 57 10 201 38 23 358 333 360 341 8 29 61 50 5 345 336 330 316 248 341 321 85 256 149 207 208 229 194 169 188 164 156 230 215 167 255 274 199 167 130 124 111 121 128
72 268 357 102 77 320 331 354 58 14 10 11 17 31 352 2 349 7 330 309 13 337 28 168 327 161 328 348 2 189 193 157 125 109 196 168 262 341 107 112 142 141 124 104 112
66 25 335 36 76 241 37 11 6 350 61 32 25 44 2 7 26 310 332 310 336 345 328 85 125 192 214 209 189 160 152 169 145 140 182 202 216 247 94 95 106 92 80 76 105
31 317 196 341 345 30 66 35 358 8 15 30 21 51 35 319 325 12 346 315 318 3 351 52 230 210 246 182 178 100 33 50 170 193 171 209 185 211 149 136 115 96 89 72 43
79 46 358 337 290 29 19 357 34 324 18 345 10 327 142 261 237 293 18 324 264 324 354 353 276 264 201 245 220 112 23 49 57 350 209 122 133 292 54 114 112 94 82 81 63
3 32 106 322 17 70 298 17 37 353 307 345 298 332 300 278 270 245 216 234 251 310 325 311 332 110 237 220 134 26 354 68 82 35 310 192 171 127 107 109 95 108 113 106 100